Weather History for Camden, AR

Change the Weather History Date:

Friday, November 30, 2012

  Actual Average Record
Temperature  
Mean Temperature 52 °F -  
Max Temperature 71 °F 59 °F 80 °F (1949)
Min Temperature 32 °F 36 °F 16 °F (1976)
Degree Days  
Heating Degree Days 14    
Growing Degree Days 2 (Base 50)    
Moisture  
Dew Point 43 °F    
Average Humidity 76    
Maximum Humidity 100    
Minimum Humidity 46    
Precipitation  
Precipitation 0.00 in - - ()
Sea Level Pressure  
Sea Level Pressure 30.20 in    
Wind  
Wind Speed 2 mph (SE)    
Max Wind Speed 9 mph    
Max Gust Speed -    
Visibility 10 miles    
Events      
Averages and records for this station are not official NWS values.
T = Trace of Precipitation, MM = Missing Value Source: NWS Daily Summary

Daily Weather History Graph

Daily Weather History Graph

Search for Another Location

Airport:

Trip Planner

Search our weather history database for the weather conditions in past years. The results will help you decide how hot, cold, wet, or windy it might be!

Date:

Astronomy

Nov. 30, 2012 Rise Set
Actual Time 6:56 AM CST 5:02 PM CST
Civil Twilight 6:29 AM CST 5:29 PM CST
Nautical Twilight 5:59 AM CST 6:00 PM CST
Astronomical Twilight 5:29 AM CST 6:30 PM CST
Moon 6:57 PM CST (11/30) 8:29 AM CST (11/30)
Length of Visible Light 11h 00m
Length of Day
10h 05m
Waning Gibbous, 96% of the Moon is Illuminated
Nov 30
Waning Gibbous
Dec 6
Last Quarter
Dec 13
New
Dec 19
First Quarter
Dec 28
Full

Hourly Weather History & Observations

Time (CST) Temp. Dew Point Humidity Pressure Visibility Wind Dir Wind Speed Gust Speed Precip Events Conditions
12:15 AM 37.4 °F 32.0 °F 81% 30.23 in 10.0 mi Calm Calm - N/A   Clear
12:35 AM 35.6 °F 32.0 °F 87% 30.22 in 10.0 mi Calm Calm - N/A   Clear
12:55 AM 35.6 °F 32.0 °F 87% 30.23 in 10.0 mi Calm Calm - N/A   Clear
1:15 AM 35.6 °F 32.0 °F 87% 30.23 in 10.0 mi Calm Calm - N/A   Clear
1:35 AM 33.8 °F 32.0 °F 93% 30.23 in 10.0 mi Calm Calm - N/A   Clear
1:55 AM 35.6 °F 32.0 °F 87% 30.23 in 10.0 mi Calm Calm - N/A   Clear
2:15 AM 33.8 °F 32.0 °F 93% 30.23 in 10.0 mi Calm Calm - N/A   Clear
2:35 AM 33.8 °F 32.0 °F 93% 30.22 in 10.0 mi Calm Calm - N/A   Clear
2:55 AM 32.0 °F 32.0 °F 100% 30.22 in 10.0 mi Calm Calm - N/A   Clear
3:15 AM 32.0 °F 30.2 °F 93% 30.22 in 10.0 mi Calm Calm - N/A   Clear
3:35 AM 32.0 °F 30.2 °F 93% 30.21 in 10.0 mi Calm Calm - N/A   Clear
3:55 AM 33.8 °F 32.0 °F 93% 30.20 in 10.0 mi Calm Calm - N/A   Clear
4:15 AM 32.0 °F 32.0 °F 100% 30.21 in 10.0 mi Calm Calm - N/A   Clear
4:35 AM 33.8 °F 32.0 °F 93% 30.20 in 10.0 mi Calm Calm - N/A   Clear
4:55 AM 33.8 °F 32.0 °F 93% 30.21 in 10.0 mi Calm Calm - N/A   Clear
5:15 AM 33.8 °F 32.0 °F 93% 30.21 in 10.0 mi Calm Calm - N/A   Clear
5:35 AM 33.8 °F 32.0 °F 93% 30.22 in 10.0 mi Calm Calm - N/A   Clear
5:55 AM 33.8 °F 32.0 °F 93% 30.22 in 10.0 mi Calm Calm - N/A   Clear
6:15 AM 33.8 °F 32.0 °F 93% 30.22 in 10.0 mi Calm Calm - N/A   Clear
6:35 AM 33.8 °F 32.0 °F 93% 30.23 in 10.0 mi Calm Calm - N/A   Clear
6:55 AM 33.8 °F 32.0 °F 93% 30.24 in 9.0 mi Calm Calm - N/A   Mostly Cloudy
7:15 AM 35.6 °F 32.0 °F 87% 30.24 in 9.0 mi Calm Calm - N/A   Mostly Cloudy
7:35 AM 35.6 °F 32.0 °F 87% 30.25 in 8.0 mi Calm Calm - N/A   Scattered Clouds
7:55 AM 39.2 °F 35.6 °F 87% 30.25 in 9.0 mi Calm Calm - N/A   Mostly Cloudy
8:15 AM 41.0 °F 35.6 °F 81% 30.25 in 8.0 mi Calm Calm - N/A   Mostly Cloudy
8:35 AM 44.6 °F 37.4 °F 76% 30.25 in 8.0 mi Calm Calm - N/A   Mostly Cloudy
8:55 AM 46.4 °F 37.4 °F 71% 30.26 in 8.0 mi Calm Calm - N/A   Overcast
9:15 AM 46.4 °F 39.2 °F 76% 30.26 in 8.0 mi Calm Calm - N/A   Mostly Cloudy
9:35 AM 48.2 °F 39.2 °F 71% 30.26 in 8.0 mi Calm Calm - N/A   Mostly Cloudy
9:55 AM 51.8 °F 41.0 °F 67% 30.25 in 8.0 mi SSE 3.5 mph - N/A   Partly Cloudy
10:15 AM 53.6 °F 42.8 °F 67% 30.26 in 8.0 mi South 4.6 mph - N/A   Partly Cloudy
10:35 AM 57.2 °F 44.6 °F 63% 30.25 in 10.0 mi Calm Calm - N/A   Partly Cloudy
10:55 AM 59.0 °F 44.6 °F 59% 30.25 in 10.0 mi Calm Calm - N/A   Mostly Cloudy
11:15 AM 60.8 °F 46.4 °F 59% 30.24 in 10.0 mi Calm Calm - N/A   Mostly Cloudy
11:35 AM 62.6 °F 46.4 °F 55% 30.23 in 10.0 mi Calm Calm - N/A   Overcast
11:55 AM 64.4 °F 48.2 °F 56% 30.21 in 10.0 mi ESE 3.5 mph - N/A   Mostly Cloudy
12:15 PM 66.2 °F 48.2 °F 52% 30.21 in 10.0 mi SE 4.6 mph - N/A   Scattered Clouds
12:35 PM 64.4 °F 50.0 °F 59% 30.20 in 10.0 mi SE 3.5 mph - N/A   Mostly Cloudy
12:55 PM 66.2 °F 50.0 °F 56% 30.18 in 10.0 mi Calm Calm - N/A   Scattered Clouds
1:15 PM 68.0 °F 50.0 °F 52% 30.18 in 10.0 mi Calm Calm - N/A   Mostly Cloudy
1:35 PM 69.8 °F 50.0 °F 49% 30.17 in 10.0 mi ESE 4.6 mph - N/A   Mostly Cloudy
1:55 PM 71.6 °F 50.0 °F 46% 30.16 in 10.0 mi ESE 3.5 mph - N/A   Partly Cloudy
2:15 PM 68.0 °F 51.8 °F 56% 30.16 in 10.0 mi South 4.6 mph - N/A   Clear
2:35 PM 68.0 °F 51.8 °F 56% 30.15 in 10.0 mi SE 5.8 mph - N/A   Partly Cloudy
2:55 PM 68.0 °F 51.8 °F 56% 30.15 in 10.0 mi SSE 9.2 mph - N/A   Mostly Cloudy
3:15 PM 68.0 °F 51.8 °F 56% 30.15 in 10.0 mi SE 8.1 mph - N/A   Mostly Cloudy
3:35 PM 68.0 °F 51.8 °F 56% 30.15 in 10.0 mi South 6.9 mph - N/A   Mostly Cloudy
3:55 PM 68.0 °F 51.8 °F 56% 30.15 in 10.0 mi SE 6.9 mph - N/A   Scattered Clouds
4:15 PM 66.2 °F 51.8 °F 60% 30.15 in 10.0 mi SSE 8.1 mph - N/A   Clear
4:35 PM 66.2 °F 53.6 °F 64% 30.14 in 9.0 mi SE 6.9 mph - N/A   Mostly Cloudy
4:55 PM 64.4 °F 51.8 °F 64% 30.14 in 9.0 mi ESE 3.5 mph - N/A   Mostly Cloudy
5:15 PM 62.6 °F 51.8 °F 68% 30.14 in 10.0 mi SE 5.8 mph - N/A   Clear
5:35 PM 62.6 °F 53.6 °F 72% 30.15 in 10.0 mi SE 6.9 mph - N/A   Mostly Cloudy
5:55 PM 60.8 °F 53.6 °F 77% 30.15 in 10.0 mi SE 6.9 mph - N/A   Overcast
6:15 PM 60.8 °F 53.6 °F 77% 30.15 in 10.0 mi ESE 5.8 mph - N/A   Scattered Clouds
6:35 PM 60.8 °F 53.6 °F 77% 30.16 in 10.0 mi SSE 4.6 mph - N/A   Scattered Clouds
6:55 PM 59.0 °F 51.8 °F 77% 30.15 in 10.0 mi SE 6.9 mph - N/A   Scattered Clouds
7:15 PM 59.0 °F 53.6 °F 82% 30.15 in 10.0 mi SE 9.2 mph - N/A   Mostly Cloudy
7:35 PM 59.0 °F 53.6 °F 82% 30.16 in 10.0 mi SE 6.9 mph - N/A   Clear
7:55 PM 59.0 °F 51.8 °F 77% 30.15 in 10.0 mi SE 6.9 mph - N/A   Partly Cloudy
8:15 PM 59.0 °F 51.8 °F 77% 30.16 in 10.0 mi SE 6.9 mph - N/A   Partly Cloudy
8:35 PM 59.0 °F 51.8 °F 77% 30.15 in 10.0 mi SE 8.1 mph - N/A   Mostly Cloudy
9:15 PM 59.0 °F 50.0 °F 72% 30.15 in 10.0 mi SSE 5.8 mph - N/A   Partly Cloudy
9:35 PM 57.2 °F 50.0 °F 77% 30.16 in 10.0 mi SSE 4.6 mph - N/A   Clear
9:55 PM 57.2 °F 50.0 °F 77% 30.16 in 10.0 mi SE 3.5 mph - N/A   Scattered Clouds
10:15 PM 57.2 °F 50.0 °F 77% 30.17 in 10.0 mi Calm Calm - N/A   Overcast
10:35 PM 57.2 °F 50.0 °F 77% 30.17 in 10.0 mi SE 3.5 mph - N/A   Overcast
11:15 PM 57.2 °F 50.0 °F 77% 30.17 in 10.0 mi SE 3.5 mph - N/A   Overcast
11:35 PM 57.2 °F 50.0 °F 77% 30.17 in 10.0 mi SE 3.5 mph - N/A   Overcast
11:55 PM 57.2 °F 50.0 °F 77% 30.17 in 10.0 mi Calm Calm - N/A   Overcast